| time (UTC) | temp F | wind direction | speed MPH | gust MPH | rain 1hr in | rain 24hr in | rain mn in | humidity % | barometer mb |
| 20260902170634 | 73 | 297 | 7.0 | 8.0 | 0.00 | 0.00 | 0.00 | ||
| 20260902170135 | 73 | 301 | 5.0 | 6.0 | 0.00 | 0.00 | 0.00 | ||
| 20260902165637 | 73 | 311 | 6.0 | 7.0 | 0.00 | 0.00 | 0.00 | ||
| 20260902164636 | 73 | 278 | 4.0 | 6.0 | 0.00 | 0.00 | 0.00 | ||
| 20260902164137 | 73 | 246 | 8.0 | 6.0 | 0.00 | 0.00 | 0.00 | ||
| 20260902163639 | 74 | 297 | 6.0 | 6.0 | 0.00 | 0.00 | 0.00 | ||
| 20260902163140 | 73 | 259 | 8.0 | 7.0 | 0.00 | 0.00 | 0.00 | ||
| 20260902162139 | 74 | 280 | 10.0 | 9.0 | 0.00 | 0.00 | 0.00 | ||
| 20260902161641 | 74 | 260 | 8.0 | 7.0 | 0.00 | 0.00 | 0.00 | ||
| 20260902161142 | 74 | 271 | 8.0 | 8.0 | 0.00 | 0.00 | 0.00 | ||
| 20260902160643 | 74 | 260 | 7.0 | 9.0 | 0.00 | 0.00 | 0.00 | ||
| 20260902155643 | 75 | 318 | 5.0 | 4.0 | 0.00 | 0.00 | 0.00 | ||
| 20260902155144 | 75 | 277 | 9.0 | 7.0 | 0.00 | 0.00 | 0.00 | ||
| 20260902154645 | 75 | 307 | 10.0 | 8.0 | 0.00 | 0.00 | 0.00 | ||
| 20260902154146 | 75 | 257 | 9.0 | 9.0 | 0.00 | 0.00 | 0.00 | ||
| 20260902153145 | 77 | 239 | 8.0 | 12.0 | 0.00 | 0.00 | 0.00 | ||
| 20260902151648 | 77 | 218 | 5.0 | 3.0 | 0.00 | 0.00 | 0.00 | ||
| 20260902150646 | 76 | 240 | 2.0 | 2.0 | 0.00 | 0.00 | 0.00 | ||
| 20260902150147 | 77 | 253 | 3.0 | 4.0 | 0.00 | 0.00 | 0.00 | ||
| 20260902145648 | 78 | 264 | 2.0 | 5.0 | 0.00 | 0.00 | 0.00 | ||
| 20260902143650 | 76 | 297 | 6.0 | 4.0 | 0.00 | 0.00 | 0.00 | ||
| 20260902141650 | 78 | 212 | 7.0 | 7.0 | 0.00 | 0.00 | 0.00 | ||
| 20260902135653 | 76 | 242 | 6.0 | 5.0 | 0.00 | 0.00 | 0.00 | ||
| 20260902134652 | 77 | 300 | 6.0 | 4.0 | 0.00 | 0.00 | 0.00 | ||
| 20260902133653 | 77 | 257 | 6.0 | 3.0 | 0.00 | 0.00 | 0.00 | ||
| 20260902133154 | 77 | 255 | 4.0 | 7.0 | 0.00 | 0.00 | 0.00 | ||
| 20260902132154 | 81 | 152 | 5.0 | 3.0 | 0.00 | 0.00 | 0.00 | ||
| 20260902131654 | 79 | 153 | 5.0 | 7.0 | 0.00 | 0.00 | 0.00 | ||
| 20260902130656 | 79 | 242 | 6.0 | 3.0 | 0.00 | 0.00 | 0.00 | ||
| 20260902125153 | 78 | 243 | 4.0 | 9.0 | 0.00 | 0.00 | 0.00 | ||
| 20260902124654 | 75 | 203 | 7.0 | 7.0 | 0.00 | 0.00 | 0.00 | ||
| 20260902123652 | 76 | 269 | 7.0 | 8.0 | 0.00 | 0.00 | 0.00 | ||
| 20260902122654 | 75 | 229 | 4.0 | 8.0 | 0.00 | 0.00 | 0.00 | ||
| 20260902122156 | 75 | 217 | 4.0 | 5.0 | 0.00 | 0.00 | 0.00 | ||
| 20260902115200 | 75 | 255 | 3.0 | 5.0 | 0.00 | 0.00 | 0.00 | ||
| 20260902114658 | 75 | 184 | 5.0 | 4.0 | 0.00 | 0.00 | 0.00 | ||
| 20260902114159 | 77 | 222 | 6.0 | 6.0 | 0.00 | 0.00 | 0.00 | ||
| 20260902113700 | 74 | 218 | 5.0 | 5.0 | 0.00 | 0.00 | 0.00 | ||
| 20260902112703 | 74 | 224 | 4.0 | 3.0 | 0.00 | 0.00 | 0.00 | ||
| 20260902112201 | 74 | 218 | 3.0 | 3.0 | 0.00 | 0.00 | 0.00 | ||
| 20260902111703 | 75 | 215 | 4.0 | 3.0 | 0.00 | 0.00 | 0.00 | ||
| 20260902111204 | 74 | 259 | 3.0 | 5.0 | 0.00 | 0.00 | 0.00 | ||
| 20260902110705 | 77 | 215 | 3.0 | 4.0 | 0.00 | 0.00 | 0.00 | ||
| 20260902110207 | 76 | 194 | 5.0 | 2.0 | 0.00 | 0.00 | 0.00 | ||
| 20260902105705 | 77 | 177 | 7.0 | 5.0 | 0.00 | 0.00 | 0.00 | ||
| 20260902105206 | 77 | 173 | 3.0 | 5.0 | 0.00 | 0.00 | 0.00 | ||
| 20260902104208 | 76 | 242 | 3.0 | 1.0 | 0.00 | 0.00 | 0.00 | ||
| 20260902103709 | 74 | 214 | 6.0 | 4.0 | 0.00 | 0.00 | 0.00 | ||
| 20260902103207 | 74 | 221 | 6.0 | 7.0 | 0.00 | 0.00 | 0.00 | ||
| 20260902101213 | 74 | 180 | 0.0 | 2.0 | 0.00 | 0.00 | 0.00 | ||
| 20260902100710 | 74 | 96 | 1.0 | 1.0 | 0.00 | 0.00 | 0.00 | ||
| 20260902095214 | 71 | 323 | 2.0 | 1.0 | 0.00 | 0.00 | 0.00 | ||
| 20260902094715 | 71 | 184 | 0.0 | 0.0 | 0.00 | 0.00 | 0.00 | ||
| 20260902094213 | 69 | 252 | 2.0 | 0.0 | 0.00 | 0.00 | 0.00 | ||
| 20260902093714 | 69 | 290 | 0.0 | 0.0 | 0.00 | 0.00 | 0.00 | ||
| 20260902093213 | 70 | 283 | 2.0 | 1.0 | 0.00 | 0.00 | 0.00 | ||
| 20260902092714 | 70 | 270 | 1.0 | 1.0 | 0.00 | 0.00 | 0.00 | ||
| 20260902092215 | 69 | 266 | 3.0 | 3.0 | 0.00 | 0.00 | 0.00 | ||
| 20260902091713 | 71 | 132 | 0.0 | 0.0 | 0.00 | 0.00 | 0.00 | ||
| 20260902091214 | 72 | 132 | 0.0 | 0.0 | 0.00 | 0.00 | 0.00 | ||
| 20260902090714 | 71 | 90 | 0.0 | 1.0 | 0.00 | 0.00 | 0.00 | ||
| 20260902090214 | 71 | 121 | 2.0 | 2.0 | 0.00 | 0.00 | 0.00 | ||
| 20260902085715 | 71 | 128 | 3.0 | 2.0 | 0.00 | 0.00 | 0.00 | ||
| 20260902085213 | 70 | 110 | 2.0 | 2.0 | 0.00 | 0.00 | 0.00 | ||
| 20260902084215 | 70 | 127 | 3.0 | 2.0 | 0.00 | 0.00 | 0.00 | ||
| 20260902083716 | 70 | 187 | 0.0 | 0.0 | 0.00 | 0.00 | 0.00 | ||
| 20260902083216 | 69 | 111 | 3.0 | 3.0 | 0.00 | 0.00 | 0.00 | ||
| 20260902082714 | 68 | 139 | 2.0 | 3.0 | 0.00 | 0.00 | 0.00 | ||
| 20260902082213 | 68 | 134 | 3.0 | 3.0 | 0.00 | 0.00 | 0.00 | ||
| 20260902081714 | 68 | 153 | 1.0 | 1.0 | 0.00 | 0.00 | 0.00 | ||
| 20260902081214 | 68 | 143 | 2.0 | 2.0 | 0.00 | 0.00 | 0.00 | ||
| 20260902080716 | 67 | 115 | 1.0 | 1.0 | 0.00 | 0.00 | 0.00 | ||
| 20260902080214 | 67 | 131 | 2.0 | 2.0 | 0.00 | 0.00 | 0.00 | ||
| 20260902075714 | 67 | 121 | 3.0 | 3.0 | 0.00 | 0.00 | 0.00 | ||
| 20260902074713 | 67 | 125 | 2.0 | 1.0 | 0.00 | 0.00 | 0.00 | ||
| 20260902074215 | 64 | 117 | 1.0 | 1.0 | 0.00 | 0.00 | 0.00 | ||
| 20260902073713 | 64 | 15 | 0.0 | 0.0 | 0.00 | 0.00 | 0.00 | ||
| 20260902073213 | 63 | 15 | 0.0 | 0.0 | 0.00 | 0.00 | 0.00 | ||
| 20260902072214 | 63 | 228 | 0.0 | 0.0 | 0.00 | 0.00 | 0.00 | ||
| 20260902071716 | 63 | 228 | 0.0 | 0.0 | 0.00 | 0.00 | 0.00 | ||
| 20260902071215 | 62 | 228 | 0.0 | 0.0 | 0.00 | 0.00 | 0.00 | ||
| 20260902070716 | 61 | 283 | 1.0 | 1.0 | 0.00 | 0.00 | 0.00 | ||
| 20260902070218 | 61 | 97 | 0.0 | 0.0 | 0.00 | 0.00 | 0.00 | ||
| 20260902065716 | 61 | 97 | 0.0 | 0.0 | 0.00 | 0.00 | 0.00 | ||
| 20260902065218 | 61 | 135 | 1.0 | 1.0 | 0.00 | 0.00 | 0.00 | ||
| 20260902064716 | 62 | 152 | 2.0 | 1.0 | 0.00 | 0.00 | 0.00 | ||
| 20260902064217 | 62 | 103 | 1.0 | 0.0 | 0.00 | 0.00 | 0.00 | ||
| 20260902063719 | 60 | 165 | 2.0 | 2.0 | 0.00 | 0.00 | 0.00 | ||
| 20260902063220 | 59 | 159 | 0.0 | 0.0 | 0.00 | 0.00 | 0.00 | ||
| 20260902062923 | 60 | 148 | 0.0 | 1.0 | 0.00 | 0.00 | 0.00 | ||
| 20260902062721 | 60 | 148 | 0.0 | 1.0 | 0.00 | 0.00 | 0.00 | ||
| 20260902062219 | 59 | 200 | 1.0 | 1.0 | 0.00 | 0.00 | 0.00 | ||
| 20260902061721 | 59 | 152 | 1.0 | 0.0 | 0.00 | 0.00 | 0.00 | ||
| 20260902061222 | 60 | 135 | 0.0 | 0.0 | 0.00 | 0.00 | 0.00 | ||
| 20260902055226 | 57 | 135 | 0.0 | 0.0 | 0.00 | 0.00 | 0.00 | ||
| 20260902054727 | 56 | 135 | 0.0 | 0.0 | 0.00 | 0.00 | 0.00 | ||
| 20260902054229 | 56 | 135 | 0.0 | 0.0 | 0.00 | 0.00 | 0.00 | ||
| 20260902053229 | 55 | 135 | 0.0 | 0.0 | 0.00 | 0.00 | 0.00 | ||
| 20260902052731 | 54 | 135 | 0.0 | 0.0 | 0.00 | 0.00 | 0.00 | ||
| 20260902051235 | 54 | 135 | 0.0 | 0.0 | 0.00 | 0.00 | 0.00 | ||
| 20260902050733 | 54 | 135 | 0.0 | 0.0 | 0.00 | 0.00 | 0.00 | ||
| 20260902045238 | 54 | 135 | 0.0 | 0.0 | 0.00 | 0.00 | 0.00 | ||
| 20260902044739 | 54 | 135 | 0.0 | 0.0 | 0.00 | 0.00 | 0.00 | ||
| 20260902044237 | 53 | 135 | 0.0 | 0.0 | 0.00 | 0.00 | 0.00 | ||
| 20260902043240 | 53 | 135 | 0.0 | 0.0 | 0.00 | 0.00 | 0.00 | ||
| 20260902042243 | 53 | 135 | 0.0 | 0.0 | 0.00 | 0.00 | 0.00 | ||
| 20260902041244 | 53 | 135 | 0.0 | 0.0 | 0.00 | 0.00 | 0.00 | ||
| 20260902040745 | 53 | 135 | 0.0 | 0.0 | 0.00 | 0.00 | 0.00 | ||
| 20260902040247 | 51 | 135 | 0.0 | 0.0 | 0.00 | 0.00 | 0.00 | ||
| 20260902034748 | 52 | 135 | 0.0 | 0.0 | 0.00 | 0.00 | 0.00 | ||
| 20260902033748 | 50 | 135 | 0.0 | 0.0 | 0.00 | 0.00 | 0.00 | ||
| 20260902032746 | 53 | 135 | 0.0 | 0.0 | 0.00 | 0.00 | 0.00 | ||
| 20260902032247 | 54 | 135 | 0.0 | 0.0 | 0.00 | 0.00 | 0.00 | ||
| 20260902031749 | 54 | 135 | 0.0 | 0.0 | 0.00 | 0.00 | 0.00 | ||
| 20260902030751 | 52 | 135 | 0.0 | 0.0 | 0.00 | 0.00 | 0.00 | ||
| 20260902030248 | 53 | 135 | 0.0 | 0.0 | 0.00 | 0.00 | 0.00 | ||
| 20260902025249 | 52 | 135 | 0.0 | 0.0 | 0.00 | 0.00 | 0.00 | ||
| 20260902024751 | 52 | 135 | 0.0 | 0.0 | 0.00 | 0.00 | 0.00 | ||
| 20260902023750 | 55 | 135 | 0.0 | 0.0 | 0.00 | 0.00 | 0.00 | ||
| 20260902023251 | 55 | 135 | 0.0 | 0.0 | 0.00 | 0.00 | 0.00 | ||
| 20260902022753 | 54 | 135 | 0.0 | 0.0 | 0.00 | 0.00 | 0.00 | ||
| 20260902021756 | 53 | 135 | 0.0 | 0.0 | 0.00 | 0.00 | 0.00 | ||
| 20260902021253 | 52 | 135 | 0.0 | 0.0 | 0.00 | 0.00 | 0.00 | ||
| 20260902020256 | 52 | 135 | 0.0 | 0.0 | 0.00 | 0.00 | 0.00 | ||
| 20260902015259 | 53 | 135 | 0.0 | 0.0 | 0.00 | 0.00 | 0.00 | ||
| 20260902014758 | 54 | 135 | 0.0 | 0.0 | 0.00 | 0.00 | 0.00 | ||
| 20260902014259 | 55 | 135 | 0.0 | 0.0 | 0.00 | 0.00 | 0.00 | ||
| 20260902013801 | 55 | 135 | 0.0 | 0.0 | 0.00 | 0.00 | 0.00 | ||
| 20260902013302 | 55 | 135 | 0.0 | 0.0 | 0.00 | 0.00 | 0.00 | ||
| 20260902012308 | 54 | 135 | 0.0 | 0.0 | 0.00 | 0.00 | 0.00 | ||
| 20260902011804 | 55 | 135 | 0.0 | 0.0 | 0.00 | 0.00 | 0.00 | ||
| 20260902011305 | 56 | 135 | 0.0 | 0.0 | 0.00 | 0.00 | 0.00 | ||
| 20260902010807 | 55 | 135 | 0.0 | 0.0 | 0.00 | 0.00 | 0.00 | ||
| 20260902005806 | 56 | 135 | 0.0 | 0.0 | 0.00 | 0.00 | 0.00 | ||
| 20260902004809 | 55 | 135 | 0.0 | 0.0 | 0.00 | 0.00 | 0.00 | ||
| 20260902004310 | 56 | 135 | 0.0 | 0.0 | 0.00 | 0.00 | 0.00 | ||
| 20260902003811 | 56 | 135 | 0.0 | 0.0 | 0.00 | 0.00 | 0.00 | ||
| 20260902003309 | 56 | 142 | 0.0 | 1.0 | 0.00 | 0.00 | 0.00 | ||
| 20260902002809 | 55 | 183 | 0.0 | 0.0 | 0.00 | 0.00 | 0.00 | ||
| 20260902002311 | 57 | 183 | 0.0 | 0.0 | 0.00 | 0.00 | 0.00 | ||
| 20260902001313 | 58 | 183 | 0.0 | 0.0 | 0.00 | 0.00 | 0.00 | ||
| 20260902000811 | 57 | 183 | 0.0 | 0.0 | 0.00 | 0.00 | 0.00 | ||
| 20260902000313 | 57 | 183 | 0.0 | 0.0 | 0.00 | 0.00 | 0.00 | ||
| 20260901235814 | 57 | 183 | 0.0 | 0.0 | 0.00 | 0.00 | 0.00 | ||
| 20260901234817 | 58 | 183 | 0.0 | 0.0 | 0.00 | 0.00 | 0.00 | ||
| 20260901234315 | 56 | 229 | 2.0 | 3.0 | 0.00 | 0.00 | 0.00 | ||
| 20260901233318 | 58 | 159 | 0.0 | 0.0 | 0.00 | 0.00 | 0.00 | ||
| 20260901232819 | 57 | 159 | 0.0 | 0.0 | 0.00 | 0.00 | 0.00 | ||
| 20260901232321 | 58 | 159 | 0.0 | 0.0 | 0.00 | 0.00 | 0.00 | ||
| 20260901231819 | 59 | 159 | 0.0 | 0.0 | 0.00 | 0.00 | 0.00 | ||
| 20260901231321 | 58 | 159 | 0.0 | 0.0 | 0.00 | 0.00 | 0.00 | ||
| 20260901230822 | 57 | 159 | 0.0 | 0.0 | 0.00 | 0.00 | 0.00 | ||
| 20260901230324 | 58 | 159 | 0.0 | 0.0 | 0.00 | 0.00 | 0.00 | ||
| 20260901225323 | 57 | 159 | 0.0 | 0.0 | 0.00 | 0.00 | 0.00 | ||
| 20260901224824 | 56 | 218 | 2.0 | 1.0 | 0.00 | 0.00 | 0.00 | ||
| 20260901224325 | 57 | 242 | 3.0 | 3.0 | 0.00 | 0.00 | 0.00 | ||
| 20260901223827 | 59 | 127 | 0.0 | 0.0 | 0.00 | 0.00 | 0.00 | ||
| 20260901223328 | 59 | 127 | 0.0 | 0.0 | 0.00 | 0.00 | 0.00 | ||
| 20260901222826 | 58 | 158 | 1.0 | 1.0 | 0.00 | 0.00 | 0.00 | ||
| 20260901222327 | 59 | 210 | 0.0 | 0.0 | 0.00 | 0.00 | 0.00 | ||
| 20260901221829 | 59 | 210 | 0.0 | 0.0 | 0.00 | 0.00 | 0.00 | ||
| 20260901220832 | 60 | 210 | 0.0 | 0.0 | 0.00 | 0.00 | 0.00 | ||
| 20260901220330 | 60 | 210 | 0.0 | 0.0 | 0.00 | 0.00 | 0.00 | ||
| 20260901215333 | 61 | 176 | 2.0 | 1.0 | 0.00 | 0.00 | 0.00 | ||
| 20260901214835 | 59 | 191 | 3.0 | 3.0 | 0.00 | 0.00 | 0.00 | ||
| 20260901214336 | 60 | 188 | 3.0 | 3.0 | 0.00 | 0.00 | 0.00 | ||
| 20260901213834 | 60 | 159 | 1.0 | 2.0 | 0.00 | 0.00 | 0.00 | ||
| 20260901213335 | 60 | 198 | 2.0 | 1.0 | 0.00 | 0.00 | 0.00 | ||
| 20260901212837 | 59 | 194 | 2.0 | 2.0 | 0.00 | 0.00 | 0.00 | ||
| 20260901212338 | 60 | 156 | 2.0 | 1.0 | 0.00 | 0.00 | 0.00 | ||
| 20260901211839 | 60 | 203 | 0.0 | 0.0 | 0.00 | 0.00 | 0.00 | ||
| 20260901211337 | 59 | 203 | 0.0 | 0.0 | 0.00 | 0.00 | 0.00 | ||
| 20260901210340 | 56 | 266 | 2.0 | 1.0 | 0.00 | 0.00 | 0.00 | ||
| 20260901205841 | 57 | 285 | 1.0 | 1.0 | 0.00 | 0.00 | 0.00 | ||
| 20260901205343 | 58 | 228 | 2.0 | 3.0 | 0.00 | 0.00 | 0.00 | ||
| 20260901204841 | 59 | 249 | 1.0 | 2.0 | 0.00 | 0.00 | 0.00 | ||
| 20260901204343 | 60 | 183 | 1.0 | 0.0 | 0.00 | 0.00 | 0.00 | ||
| 20260901203844 | 62 | 191 | 2.0 | 2.0 | 0.00 | 0.00 | 0.00 | ||
| 20260901202847 | 62 | 174 | 0.0 | 2.0 | 0.00 | 0.00 | 0.00 | ||
| 20260901201845 | 59 | 194 | 2.0 | 3.0 | 0.00 | 0.00 | 0.00 | ||
| 20260901201346 | 60 | 204 | 2.0 | 2.0 | 0.00 | 0.00 | 0.00 | ||
| 20260901200848 | 60 | 198 | 3.0 | 3.0 | 0.00 | 0.00 | 0.00 | ||
| 20260901200349 | 61 | 203 | 3.0 | 2.0 | 0.00 | 0.00 | 0.00 | ||
| 20260901195847 | 61 | 200 | 4.0 | 3.0 | 0.00 | 0.00 | 0.00 | ||
| 20260901195348 | 61 | 228 | 3.0 | 4.0 | 0.00 | 0.00 | 0.00 | ||
| 20260901194850 | 61 | 184 | 3.0 | 2.0 | 0.00 | 0.00 | 0.00 | ||
| 20260901194351 | 61 | 184 | 2.0 | 2.0 | 0.00 | 0.00 | 0.00 | ||
| 20260901193852 | 61 | 191 | 2.0 | 2.0 | 0.00 | 0.00 | 0.00 | ||
| 20260901193350 | 62 | 188 | 0.0 | 2.0 | 0.00 | 0.00 | 0.00 | ||
| 20260901192851 | 64 | 179 | 0.0 | 0.0 | 0.00 | 0.00 | 0.00 | ||
| 20260901192353 | 64 | 179 | 0.0 | 0.0 | 0.00 | 0.00 | 0.00 | ||
| 20260901191854 | 64 | 179 | 0.0 | 0.0 | 0.00 | 0.00 | 0.00 | ||
| 20260901191356 | 65 | 179 | 0.0 | 0.0 | 0.00 | 0.00 | 0.00 | ||
| 20260901185857 | 66 | 179 | 0.0 | 0.0 | 0.00 | 0.00 | 0.00 | ||
| 20260901184357 | 67 | 179 | 0.0 | 0.0 | 0.00 | 0.00 | 0.00 | ||
| 20260901183400 | 66 | 179 | 0.0 | 0.0 | 0.00 | 0.00 | 0.00 | ||
| 20260901182901 | 66 | 179 | 0.0 | 0.0 | 0.00 | 0.00 | 0.00 | ||
| 20260901182402 | 65 | 179 | 0.0 | 0.0 | 0.00 | 0.00 | 0.00 | ||
| 20260901181901 | 66 | 179 | 0.0 | 0.0 | 0.00 | 0.00 | 0.00 | ||
| 20260901181402 | 66 | 215 | 2.0 | 0.0 | 0.00 | 0.00 | 0.00 | ||
| 20260901180405 | 66 | 229 | 0.0 | 0.0 | 0.00 | 0.00 | 0.00 | ||
| 20260901175906 | 67 | 243 | 0.0 | 2.0 | 0.00 | 0.00 | 0.00 | ||
| 20260901175403 | 68 | 250 | 0.0 | 0.0 | 0.00 | 0.00 | 0.00 | ||
| 20260901174905 | 67 | 250 | 1.0 | 0.0 | 0.00 | 0.00 | 0.00 | ||
| 20260901174406 | 68 | 200 | 1.0 | 1.0 | 0.00 | 0.00 | 0.00 | ||
| 20260901173907 | 68 | 246 | 2.0 | 0.0 | 0.00 | 0.00 | 0.00 | ||
| 20260901173408 | 72 | 249 | 1.0 | 0.0 | 0.00 | 0.00 | 0.00 | ||
| 20260901172905 | 74 | 283 | 2.0 | 2.0 | 0.00 | 0.00 | 0.00 | ||
| 20260901172407 | 73 | 276 | 4.0 | 3.0 | 0.00 | 0.00 | 0.00 | ||
| 20260901171907 | 72 | 266 | 5.0 | 4.0 | 0.00 | 0.00 | 0.00 | ||
| 20260901171444 | 74 | 301 | 5.0 | 4.0 | 0.00 | 0.00 | 0.00 | ||
| 20260901171408 | 74 | 301 | 5.0 | 4.0 | 0.00 | 0.00 | 0.00 |